Location: Lecco
(45.8566°N, 9.3977°E)
Time: 11:31:07
(UTC+02:00)

Transit 4A - All Passes

Search period start: 14 August 2020 00:00
Search period end: 24 August 2020 00:00
Orbit: 864 x 980 km, 66.8° (Epoch: 13 August)

Date Brightness Start Highest point End Pass type
(mag) Time Alt. Az. Time Alt. Az. Time Alt. Az.
14 Aug - 08:08:01 10° SE 08:11:13 15° ESE 08:14:27 10° ENE daylight
14 Aug - 09:50:37 10° SSW 09:56:36 85° ESE 10:02:49 10° NE daylight
14 Aug - 11:38:52 10° W 11:43:46 25° NW 11:48:48 10° NNE daylight
14 Aug - 13:30:56 10° NNW 13:32:38 11° N 13:34:20 10° N daylight
14 Aug - 15:19:20 10° N 15:22:09 13° NNE 15:24:59 10° NE daylight
14 Aug - 17:04:52 10° NNW 17:10:36 34° NE 17:16:22 10° ESE daylight
14 Aug - 18:51:06 10° NW 18:57:21 59° WSW 19:03:37 10° SSE daylight
15 Aug - 08:15:42 10° SSE 08:20:12 22° ESE 08:24:48 10° ENE daylight
15 Aug - 09:59:59 10° SW 10:05:57 70° NW 10:12:10 10° NNE daylight
15 Aug - 11:49:10 10° WNW 11:53:31 20° NNW 11:57:58 10° NNE daylight
15 Aug - 13:41:39 10° NNW 13:42:40 10° N 13:43:40 10° N daylight
15 Aug - 15:28:28 10° N 15:32:04 15° NNE 15:35:41 10° ENE daylight
15 Aug - 17:14:06 10° NNW 17:20:11 45° NE 17:26:17 10° ESE daylight
15 Aug - 19:00:38 10° NW 19:06:33 41° WSW 19:12:29 10° S daylight
16 Aug - 08:24:01 10° S 08:29:15 33° ESE 08:34:39 10° NE daylight
16 Aug - 10:09:33 10° SW 10:15:23 50° NW 10:21:27 10° NNE daylight
16 Aug - 11:59:37 10° WNW 12:03:21 16° NNW 12:07:08 10° NNE daylight
16 Aug - 13:51:48 10° N 13:52:42 10° N 13:53:36 10° N daylight
16 Aug - 15:37:37 10° NNW 15:41:56 19° NNE 15:46:16 10° ENE daylight
16 Aug - 17:23:21 10° NNW 17:29:40 60° NE 17:36:00 10° SE daylight
16 Aug - 19:10:19 10° NW 19:15:41 29° WSW 19:21:02 10° SSW daylight
17 Aug - 08:32:42 10° S 08:38:24 48° ESE 08:44:17 10° NE daylight
17 Aug - 10:19:20 10° WSW 10:24:55 38° NW 10:30:41 10° NNE daylight
17 Aug - 12:10:14 10° NW 12:13:15 14° NNW 12:16:17 10° N daylight
17 Aug - 14:01:12 10° N 14:02:44 11° N 14:04:15 10° NNE daylight
17 Aug - 15:46:46 10° NNW 15:51:43 23° NE 15:56:40 10° E daylight
17 Aug - 17:32:39 10° NNW 17:39:04 82° NE 17:45:30 10° SE daylight
17 Aug - 19:20:18 10° WNW 19:24:44 20° WSW 19:29:10 10° SSW daylight
18 Aug - 07:00:54 10° ESE 07:02:28 11° E 07:04:02 10° E daylight
18 Aug - 08:41:40 10° SSW 08:47:36 69° ESE 08:53:46 10° NE daylight
18 Aug - 10:29:19 10° W 10:34:32 29° NW 10:39:54 10° NNE daylight
18 Aug - 12:20:58 10° NW 12:23:12 12° NNW 12:25:27 10° N daylight
18 Aug - 14:10:25 10° N 14:12:44 12° NNE 14:15:04 10° NE daylight
18 Aug - 15:55:57 10° NNW 16:01:25 29° NE 16:06:54 10° E daylight
18 Aug - 17:42:01 10° NW 17:48:24 73° WSW 17:54:46 10° SSE daylight
18 Aug - 19:30:55 10° WNW 19:33:42 13° W 19:36:30 10° SW daylight
19 Aug - 07:07:37 10° SE 07:11:24 17° ESE 07:15:14 10° ENE daylight
19 Aug - 08:50:54 10° SSW 08:56:55 85° WNW 09:03:10 10° NNE daylight
19 Aug - 10:39:30 10° W 10:44:13 23° NW 10:49:05 10° NNE daylight
19 Aug - 12:31:44 10° NNW 12:33:13 11° N 12:34:42 10° N daylight
19 Aug - 14:19:34 10° N 14:22:41 14° NNE 14:25:50 10° NE daylight
19 Aug - 16:05:09 10° NNW 16:11:02 37° NE 16:16:56 10° ESE daylight
19 Aug - 17:51:29 10° NW 17:57:39 52° WSW 18:03:48 10° S daylight
20 Aug - 07:15:35 10° SSE 07:20:24 26° ESE 07:25:21 10° NE daylight
20 Aug - 09:00:21 10° SW 09:06:17 62° NW 09:12:29 10° NNE daylight
20 Aug - 10:49:51 10° WNW 10:54:00 18° NNW 10:58:16 10° NNE daylight
20 Aug - 12:42:18 10° N 12:43:14 10° N 12:44:11 10° N daylight
20 Aug - 14:28:43 10° NNW 14:32:36 16° NNE 14:36:29 10° ENE daylight
20 Aug - 16:14:22 10° NNW 16:20:34 50° NE 16:26:47 10° SE daylight
20 Aug - 18:01:04 10° NW 18:06:49 36° WSW 18:12:34 10° S daylight
21 Aug - 07:24:03 10° S 07:29:30 38° ESE 07:35:07 10° NE daylight
21 Aug - 09:10:00 10° WSW 09:15:46 45° NW 09:21:45 10° NNE daylight
21 Aug - 11:00:22 10° WNW 11:03:52 15° NNW 11:07:25 10° N daylight
21 Aug - 12:52:08 10° N 12:53:17 10° N 12:54:24 10° NNE daylight
21 Aug - 14:37:52 10° NNW 14:42:26 20° NNE 14:47:00 10° ENE daylight
21 Aug - 16:23:39 10° NNW 16:30:02 67° NE 16:36:25 10° SE daylight
21 Aug - 18:10:50 10° NW 18:15:55 25° WSW 18:21:00 10° SSW daylight
22 Aug - 07:32:50 10° SSW 07:38:40 55° ESE 07:44:41 10° NE daylight
22 Aug - 09:19:51 10° WSW 09:25:20 34° NW 09:30:59 10° NNE daylight
22 Aug - 11:11:01 10° NW 11:13:47 13° NNW 11:16:35 10° N daylight
22 Aug - 13:01:28 10° N 13:03:18 11° N 13:05:08 10° NNE daylight
22 Aug - 14:47:02 10° NNW 14:52:11 25° NE 14:57:21 10° E daylight
22 Aug - 16:32:59 10° NNW 16:39:24 89° WSW 16:45:50 10° SSE daylight
22 Aug - 18:20:58 10° WNW 18:24:56 17° WSW 18:28:54 10° SW daylight
23 Aug - 05:59:56 10° SE 06:02:38 13° E 06:05:21 10° ENE visible
23 Aug - 07:41:55 10° SSW 07:47:54 78° ESE 07:54:08 10° NE daylight
23 Aug - 09:29:54 10° W 09:34:59 27° NW 09:40:12 10° NNE daylight
23 Aug - 11:21:46 10° NNW 11:23:45 11° NNW 11:25:46 10° N daylight
23 Aug - 13:10:39 10° N 13:13:17 13° NNE 13:15:56 10° NE daylight
23 Aug - 14:56:13 10° NNW 15:01:51 32° NE 15:07:31 10° ESE daylight
23 Aug - 16:42:22 10° NW 16:48:42 65° WSW 16:55:01 10° SSE daylight
23 Aug - 18:32:13 10° W 18:33:53 11° W 18:35:33 10° WSW daylight
